Página principal
METAR-TAF:

METAR-TAF

Aeroportos :

Roscommon County - Blodgett Memorial Airport

Houghton Lake, Michigan, Estados Unidos

latitude: 44-21-04N, longitude: 084-40-27W, altura: 350 m

Observação actual do tempo

O boletim foi feito há 22 minutos, às 21:53 UTC
Vento 15 kt de noroeste com rajadas de 22 kt
Temperatura 6°C
Humidade 61%
Pressão 1024 hPa
Visibilidade: 16.1 km
Nuvens dispersasa uma altura de 3400 ft
Nuvens fragmentadasa uma altura de 4300 ft

METAR: KHTL 232153Z AUTO 31015G22KT 10SM SCT034 BKN043 06/M01 A3023 RMK AO2 RAB2059E11 SLP247 P0000 T00561006

Hora: 18:15 (22:15 UTC)


TAF: em falta

Observações e previsões do tempo de mais de 4000 aeroportos (mensagens METAR e TAF).

As estações disponíveis são os pontos amarelos e vermelhos sobre o mapa.

Mova o rato sobre o mapa para ver o nome da estação.

Depois clique no ponto para visualizar as observações e previsões meteorológicas.

Para alterar o mapa : clique nos botões verdes com uma cruz preta para aumentar o zoom; no botão verde com uma pitada de zoom; ou nas setas verdes para mapas adjacentes.


METAR-TAF: